FENGYUN 1C DEB

Satellite information

Favourite Embed

Satellite Type and Status

DEBRISIN ORBIT

Key statistics

Satellite FENGYUN 1C DEB at a glance.

Uptime

9495

Days in orbit

Revolutions

≈ 13.8

Per day

Orbit

SSO

Sun Synchronous Orbit

Inclination

98.5

Latest

Satellite identification and parameters

Extended collection of information and parameters for FENGYUN 1C DEB.

Object identification

Identified? True

Debris? True

Object name: FENGYUN 1C DEB

International designator: 1999-025CBX

Object number (NORAD): 31665

Object ID (CCSDS): 31665

Country: PEOPLES REPUBLIC OF CHINA (PRC)

Current information (Y/N): Y

RCS size: SMALL

Orbital parameters

Period: 104.04 minutes

Inclination: 98.4577 deg

SMA: 7327.6 km

Apoapsis: 1089.333 km

Periapsis: 809.596 km

RAAN: 189.8713 deg

Eccentricy: 0.0190879

Argument of periapsis: 74.2197 deg

Mean anomaly: 287.9918 deg

Mean motion: 13.84076697 rev/day

Mean motion (dot): 0.0000205 rev/day2

B* drag term: 0.0016279 1/REarth

Two-line elements (TLE)

Creation date: May 6, 2025, 3:54 a.m.

Reference frame: TEME

Reference center: EARTH

Epoch: May 5, 2025, 3:22 a.m. UTC

TLE line 0: 0 FENGYUN 1C DEB

TLE line 1: 1 31665U 99025CBX 25125.14067295 .00002050 00000-0 16279-2 0 9999

TLE line 2: 2 31665 98.4577 189.8713 0190879 74.2197 287.9918 13.84076697901256

Live tracking on map

Real-time ground track for satellite FENGYUN 1C DEB.

In-orbit conjunctions

A list of the most updated potential collisions computed for object FENGYUN 1C DEB.

Target Orbit TCA Probability of collision Miss distance Type
CZ-6A DEB LEO 2025-02-21 00:39:00 0.0007467102 132.0 (m) DEBRIS
NIMBUS 7 SSO 2025-02-03 02:47:28 0.0001138064 693.0 (m) PAYLOAD
COSMOS 700 LEO 2024-09-12 00:16:01 0.0004135564 426.0 (m) PAYLOAD
FAISAT LEO 2024-09-05 23:09:07 0.0001083234 214.0 (m) PAYLOAD
COSMOS 971 LEO 2024-07-10 06:27:09 0.0003037177 167.0 (m) PAYLOAD

Associated space launch

Chinese polar orbiting meteorological satellite

FENGYUN 1C DEB was lifted into orbit during the mission ‘Long March 4B | Feng Yun 1C’, on board a Long March 4B space rocket.

The launch took place on May 10, 1999, 1:33 a.m. from Launch Complex 7.

For more information about the launch, click the button.

Launch to space Long March 4B | Feng Yun 1C
Long March 4B | Feng Yun 1C

Agency: N/A

Status: Launch Successful

Launch date: May 10, 1999, 1:33 a.m. UTC

Rocket: Long March 4B

Launch pad: Launch Complex 7

Location: Taiyuan Satellite Launch Center, People's Republic of China

...

Latest news about this satellite

There are no fresh news available about this satellite. Check back as we update our databases every day.


Newsletter sign-up

Weekly statistics, charts and insights to help you stay on top of the space industry.